Location: Melbourne
(37.8666°S, 145.1333°E)
Time: 11:33:30
(UTC+11:00)

Iridium 21 - Visible Passes

Search period start: 21 October 2014 00:00
Search period end: 31 October 2014 00:00
Orbit: 776 x 779 km, 86.4° (Epoch: 19 October)

Date Brightness Start Highest point End Pass type
(mag) Time Alt. Az. Time Alt. Az. Time Alt. Az.
21 Oct 6.7 04:55:41 10° NNE 05:00:36 44° E 05:05:36 10° SSE visible
22 Oct 7.8 04:23:13 10° NE 04:27:18 24° E 04:31:26 10° SSE visible
23 Oct 8.4 03:52:00 10° ENE 03:54:07 13° ESE 03:56:15 10° SE visible
23 Oct 5.5 05:28:56 10° N 05:34:08 68° W 05:39:25 10° S visible
24 Oct 6.0 04:55:28 10° N 05:00:38 65° E 05:05:52 10° S visible
25 Oct 7.1 04:22:35 10° NNE 04:27:15 34° E 04:31:59 10° SSE visible
26 Oct 8.0 03:50:28 10° ENE 03:54:00 19° E 03:57:33 10° SE visible
26 Oct 5.9 05:29:16 10° NNW 05:34:17 46° W 05:39:22 10° S visible
27 Oct 5.5 04:55:28 10° N 05:00:42 87° W 05:06:01 10° S visible
28 Oct 6.4 04:22:13 10° NNE 04:27:15 50° E 04:32:21 10° SSE visible
29 Oct 7.5 03:49:36 10° NE 03:53:55 27° E 03:58:17 10° SSE visible
29 Oct 6.4 05:29:50 10° NW 05:34:28 31° W 05:39:10 10° SSW visible
30 Oct 8.2 03:17:58 10° ENE 03:20:42 14° ESE 03:23:27 10° SE visible
30 Oct 5.6 04:56:11 13° NNW 05:00:49 59° W 05:06:03 10° S visible
